Theta_e
314 319 325 329 324 326 326 331 326 336 357 348 346 346 349 348 353 353 348 350 355 349 345 342 339 338 338 340 343 338 327 324 328 329 327 328 331 334 336 338 337 337 335 333 334 337 340 344 344
316 323 325 322 328 328 328 325 325 340 351 343 343 344 347 349 348 344 343 352 354 347 342 339 337 337 340 342 343 341 331 325 325 330 328 328 328 330 333 334 336 336 336 335 335 338 340 341 342
321 326 321 325 329 330 330 323 323 325 349 356 352 345 346 350 344 342 344 356 353 348 340 338 336 336 341 343 343 342 336 329 325 329 330 328 329 329 331 333 334 335 336 336 337 339 339 340 340
325 320 321 326 331 332 325 322 321 324 343 346 350 358 346 345 348 348 356 355 355 348 339 336 335 335 338 342 344 343 340 334 327 327 331 330 330 329 333 336 337 337 337 338 338 338 338 339 338
326 317 322 327 330 329 327 322 322 323 335 339 344 350 352 354 356 357 358 358 355 345 340 339 336 334 334 339 342 342 342 340 332 327 330 331 330 330 333 338 341 339 338 339 339 339 338 339 338
316 315 316 327 331 328 324 321 320 322 323 328 335 334 336 343 349 358 360 353 336 338 341 342 340 337 334 333 338 341 341 339 332 327 328 332 331 331 333 337 340 341 341 340 339 339 338 337 337
317 316 317 317 322 328 324 322 320 321 321 322 326 326 323 323 325 348 357 353 345 349 345 343 343 341 339 337 333 333 337 339 336 330 327 328 332 332 333 334 337 337 337 338 336 333 332 333 334
314 315 317 316 318 322 322 322 321 320 322 324 324 324 323 323 326 330 351 356 356 352 348 347 345 342 341 338 337 335 333 332 337 336 331 329 330 332 332 333 334 335 336 337 337 331 328 329 328
318 313 314 318 320 322 320 321 321 321 321 323 323 322 323 325 325 325 325 345 349 356 354 353 352 346 343 343 341 340 338 335 333 332 336 339 337 336 336 334 333 334 335 339 338 332 328 327 328
315 314 317 320 319 319 319 320 320 321 321 323 323 323 324 324 323 323 322 322 324 329 340 347 329 347 353 349 346 345 345 342 340 334 332 331 333 338 341 342 340 336 337 338 338 337 332 331 332
318 318 319 320 320 318 318 318 318 319 319 321 321 321 322 323 323 323 322 323 327 328 330 329 327 329 330 342 349 352 353 351 346 341 336 335 338 336 343 347 348 346 343 341 341 338 336 335 335
318 319 319 319 318 318 317 318 319 318 319 319 319 319 319 319 321 321 322 324 326 328 329 329 329 329 328 328 329 330 335 354 352 350 347 345 347 345 343 343 345 347 346 344 342 341 338 336 335
319 320 319 319 319 318 318 317 318 317 319 319 320 319 319 318 320 322 322 326 326 327 329 330 327 326 328 328 326 326 327 328 342 354 351 348 348 348 345 345 345 345 345 345 344 343 341 339 339
318 318 318 318 318 319 319 319 318 318 319 319 319 319 319 318 319 321 326 328 329 329 329 328 326 328 328 328 325 323 321 323 332 338 347 351 349 348 348 345 348 347 347 347 346 345 344 343 342
320 318 317 317 318 320 320 319 318 318 317 318 318 319 320 318 320 319 326 329 329 329 328 326 327 324 323 325 326 328 325 320 321 332 332 345 351 350 349 348 346 345 346 347 347 347 346 344 344
319 318 317 316 318 319 317 317 318 318 318 318 319 318 319 318 319 323 327 328 328 327 326 324 324 318 322 322 323 326 331 332 329 324 324 327 341 349 349 349 345 343 346 344 345 345 346 345 343
320 318 319 320 318 318 317 317 318 319 320 319 317 318 318 317 317 323 327 327 326 326 326 326 325 318 321 320 322 320 323 325 329 332 332 328 331 340 349 347 345 346 349 346 345 345 346 346 344
319 319 318 319 320 319 318 318 319 321 320 318 317 317 317 316 316 325 326 326 326 326 325 324 324 323 323 324 320 318 317 314 321 322 328 331 332 336 341 348 347 349 349 348 348 347 348 346 344
319 319 319 320 320 321 320 320 319 318 317 316 316 316 316 322 324 325 325 325 325 325 325 324 323 323 321 324 322 323 324 318 319 322 317 319 330 325 340 345 347 346 344 345 346 347 347 344 344
319 319 319 320 321 319 318 318 317 316 317 317 317 317 315 323 323 324 324 325 325 325 324 324 324 323 322 323 321 322 321 320 322 322 316 316 314 313 321 336 345 343 338 341 339 342 347 342 344
320 320 319 318 318 317 317 316 316 318 318 318 316 314 315 317 322 323 323 324 325 324 324 323 323 322 322 322 321 320 319 318 321 317 317 316 315 314 315 321 332 342 338 330 332 340 343 347 344
319 320 319 318 317 316 318 318 318 317 319 318 316 314 314 315 317 323 323 324 324 324 323 323 322 322 323 322 321 320 320 321 319 320 319 316 314 319 321 326 333 338 341 341 337 326 333 342 344
319 319 319 319 317 317 319 319 320 318 317 320 319 319 317 318 319 322 323 324 324 323 323 323 323 323 323 322 321 320 320 320 320 319 317 317 320 321 321 324 332 335 337 339 338 339 340 340 342
319 318 319 318 316 319 319 319 317 318 320 321 321 320 322 320 319 318 319 319 320 321 320 320 321 320 321 321 320 320 319 319 318 317 317 318 319 323 324 323 325 329 332 334 330 333 338 338 339
318 315 318 320 319 321 320 319 316 320 320 319 318 318 319 319 318 318 317 316 318 321 320 317 320 320 321 321 320 318 319 317 316 317 318 318 321 318 319 320 322 324 330 326 332 336 338 337 338
318 317 317 323 322 321 319 319 316 319 318 318 318 318 320 320 318 317 317 317 317 317 316 318 319 317 315 321 319 316 315 316 316 320 319 317 317 319 320 321 322 323 325 330 323 323 323 332 337
318 317 316 318 322 321 319 318 318 320 319 318 318 318 320 320 317 317 318 317 316 316 315 316 316 317 320 317 315 315 316 316 316 315 316 317 316 316 318 319 321 322 324 328 331 326 324 332 334
318 317 317 321 323 322 323 323 321 319 318 320 318 318 317 317 315 316 317 317 317 315 314 315 315 318 317 316 316 315 314 316 317 316 315 315 314 315 317 318 320 321 322 325 333 332 326 323 324
317 315 317 319 323 321 323 320 318 318 314 314 316 316 316 316 315 315 314 315 316 316 316 315 316 316 313 313 314 314 315 314 314 313 313 312 312 314 316 317 319 320 321 324 327 331 329 327 325
317 319 318 324 322 322 323 321 316 316 315 314 315 316 316 317 317 314 313 314 313 316 316 315 313 312 312 312 312 312 311 312 311 310 310 310 310 310 313 313 314 317 321 323 326 333 329 324 331
Wind_Speed
16 16 16 5 4 4 5 5 7 17 9 10 15 13 16 10 10 4 14 21 6 17 18 17 14 12 14 15 14 14 13 14 16 16 18 19 19 17 16 14 14 12 11 11 11 9 9 8 8
13 15 3 2 3 4 6 10 13 15 22 26 20 14 9 6 3 5 7 20 20 18 16 17 15 14 14 17 16 14 13 13 14 15 15 16 17 15 13 13 12 10 9 9 9 7 6 6 5
15 11 3 3 1 2 5 8 10 17 23 15 10 4 13 9 8 8 20 33 30 20 16 15 15 16 15 16 16 15 13 12 13 14 14 14 14 14 12 11 10 9 10 9 7 6 5 3 2
7 4 3 3 5 7 4 8 10 17 21 21 18 7 6 27 31 24 25 32 24 21 18 14 13 15 15 15 15 14 12 11 11 13 13 13 12 12 11 10 9 9 9 8 7 6 5 4 2
7 1 1 1 5 9 8 7 8 8 15 16 18 10 8 18 12 9 23 19 22 21 19 16 11 12 14 14 14 13 11 9 9 11 12 12 12 12 12 10 8 8 8 7 7 7 7 6 5
4 1 3 2 9 13 1 7 7 8 10 14 10 10 6 17 14 30 33 34 22 7 15 16 14 11 12 13 12 10 10 8 8 9 10 11 11 11 12 12 11 10 9 8 8 9 9 9 8
4 2 4 6 8 4 4 2 5 7 10 11 14 6 4 12 16 14 24 34 36 31 22 18 16 14 13 12 11 8 8 8 8 9 10 11 11 12 13 13 14 13 12 11 11 11 11 11 10
4 3 6 6 2 2 1 2 4 7 5 4 6 3 3 6 15 18 22 28 27 25 22 19 15 15 15 14 12 9 7 7 8 8 10 11 12 13 14 15 15 15 15 14 13 13 13 12 12
1 3 4 7 7 4 5 3 3 3 4 5 6 9 4 3 12 17 22 23 21 17 11 15 9 9 12 14 12 10 8 9 9 10 11 12 13 14 15 17 17 17 17 17 16 15 14 14 14
4 3 6 3 5 5 7 4 6 3 4 3 7 9 12 8 14 20 22 21 28 29 27 18 25 4 10 7 11 10 8 9 11 13 14 15 15 15 14 15 16 19 18 18 18 17 16 16 16
2 3 5 4 7 8 6 9 6 7 4 3 8 6 7 9 11 12 13 19 27 25 27 20 17 21 16 7 4 4 8 11 12 13 15 15 14 16 15 17 18 18 18 20 21 21 20 20 20
4 4 5 3 6 5 7 8 6 6 0 10 9 7 5 3 7 10 8 15 19 24 21 17 16 19 19 14 11 8 11 16 16 15 16 16 15 15 16 20 22 25 25 24 24 24 23 23 23
3 1 5 1 4 2 6 8 5 8 4 7 6 8 7 6 8 16 13 21 19 18 18 18 18 18 19 18 18 18 16 12 12 18 19 21 20 19 20 20 23 26 26 26 24 25 24 24 23
3 5 5 5 6 4 4 5 6 8 7 6 7 3 1 5 4 13 25 26 24 19 14 14 15 12 15 21 20 20 20 19 17 10 11 23 27 24 21 22 18 18 19 26 25 25 27 24 23
3 4 8 6 7 5 4 2 8 13 8 9 8 6 2 5 11 4 26 28 28 24 17 15 10 11 13 13 15 17 19 20 20 19 18 14 30 31 27 25 25 24 22 16 21 23 30 30 29
5 4 3 12 9 6 9 8 12 10 5 7 9 8 8 8 8 14 26 30 26 22 17 14 13 13 11 12 13 15 15 18 20 22 24 24 19 32 33 30 27 27 27 27 25 21 19 28 31
3 4 5 5 7 6 6 6 14 10 5 7 9 9 9 9 12 15 29 28 25 21 18 15 10 11 11 14 13 15 15 15 15 19 20 24 26 23 35 34 31 30 28 23 22 24 22 19 18
5 6 8 7 9 3 8 8 6 3 4 8 8 7 8 9 7 27 30 28 25 19 14 10 6 6 8 11 13 16 17 19 19 24 21 25 27 22 25 32 30 31 25 22 24 25 23 23 18
6 7 8 8 11 5 6 7 9 8 7 9 9 9 9 9 13 27 30 28 25 18 13 10 2 2 4 8 15 19 22 24 22 21 24 23 24 28 20 29 33 23 20 21 25 26 26 25 26
6 8 9 7 7 8 9 14 12 11 12 13 16 11 8 12 13 18 27 26 23 22 19 12 6 3 2 5 8 10 15 19 21 24 26 26 29 30 27 20 25 26 22 37 20 27 28 25 29
6 5 8 8 9 8 9 10 9 20 18 15 5 9 9 14 12 12 17 26 26 26 19 15 12 6 1 4 9 14 18 22 24 30 31 34 34 32 33 25 14 18 26 31 23 28 25 26 30
5 10 11 11 8 4 3 11 10 11 13 11 6 8 8 8 7 10 13 23 26 25 23 20 17 9 6 5 8 9 10 13 21 24 30 35 35 33 30 28 27 13 22 27 31 28 25 29 27
6 3 6 9 8 7 7 3 12 9 9 20 21 17 15 25 9 4 9 23 25 21 17 16 11 5 4 3 7 8 10 12 16 24 31 33 33 34 34 29 25 24 22 23 22 24 28 31 33
6 8 7 5 4 3 7 4 6 7 11 16 17 17 19 20 17 18 30 33 28 22 18 18 8 11 14 9 10 9 10 13 17 24 27 29 29 31 26 27 28 24 20 23 32 35 32 29 34
8 8 5 5 4 6 8 7 6 8 13 15 14 12 12 13 13 15 12 18 24 26 16 10 6 6 15 17 10 10 9 14 18 20 26 26 26 31 31 30 31 27 24 27 28 24 25 28 31
4 1 4 6 3 8 4 5 5 7 12 10 10 12 11 9 8 9 9 13 10 11 6 4 5 11 14 22 9 9 11 13 17 16 17 29 29 30 31 30 24 25 27 24 27 29 27 27 32
5 3 8 5 4 4 4 8 5 15 12 8 7 8 6 4 5 6 5 5 5 6 7 9 17 22 20 9 9 10 10 15 18 18 19 23 30 30 29 31 28 25 25 27 29 32 31 26 28
5 6 6 4 4 10 2 6 8 11 18 10 11 8 10 11 9 10 11 14 12 16 14 17 18 16 9 6 6 10 13 15 12 14 19 25 31 32 33 32 30 27 25 26 30 33 33 27 30
12 8 5 0 3 1 4 5 15 15 8 7 5 6 6 6 6 6 11 22 26 21 21 26 27 13 7 10 12 9 6 10 12 15 19 25 29 30 27 26 28 28 29 29 30 29 33 42 42
8 6 5 1 9 7 8 10 13 13 11 9 12 6 5 6 5 8 14 20 17 14 17 19 13 17 18 18 16 15 16 17 17 20 24 27 32 32 29 29 32 30 29 31 31 31 29 35 29
Wind_Direction
316 304 298 292 29 71 283 316 358 42 61 69 84 71 86 97 138 197 171 265 217 150 134 124 118 117 118 120 124 124 120 128 134 137 138 139 140 139 135 130 130 128 130 132 128 123 117 112 107
318 317 259 294 70 5 306 2 3 70 116 110 93 76 41 80 207 251 237 227 186 138 132 126 121 115 115 121 127 129 128 133 142 146 147 147 149 150 148 144 144 143 140 144 139 135 130 125 121
304 292 69 153 42 324 308 12 344 343 155 117 103 120 133 164 187 190 212 167 152 131 131 120 119 111 111 118 126 133 133 135 149 155 158 159 158 159 160 157 157 159 159 159 158 159 156 153 147
326 350 354 63 325 305 0 11 351 350 83 82 148 133 186 193 160 212 187 151 121 129 134 123 113 107 107 115 125 135 134 140 152 162 167 169 170 168 171 170 165 163 169 174 181 191 196 204 216
265 323 313 160 347 332 343 20 354 9 75 88 91 91 76 180 107 142 106 109 117 133 129 124 117 112 112 115 125 137 139 143 153 169 174 178 181 181 183 186 182 178 182 196 205 212 218 228 245
357 84 14 164 187 236 107 5 331 25 46 84 84 77 85 93 103 103 133 122 63 21 155 136 132 126 118 116 121 136 142 148 154 169 181 189 194 195 200 201 201 203 208 210 221 225 227 230 246
168 106 247 294 249 172 124 359 33 42 39 19 79 69 331 12 7 130 142 142 142 141 158 144 142 143 134 127 127 138 147 160 170 178 184 192 200 208 217 221 222 223 223 226 227 227 227 230 241
155 92 291 269 246 150 169 97 109 65 80 88 62 83 328 320 6 46 132 138 145 145 141 142 149 148 149 143 145 146 156 176 186 193 197 200 208 215 220 226 232 236 237 237 236 232 230 233 239
124 40 294 305 55 156 191 128 39 4 51 76 92 123 170 13 9 30 45 107 97 128 117 133 114 154 169 157 157 157 174 188 193 204 208 213 219 223 227 230 233 235 240 242 243 240 238 237 241
128 127 261 46 41 34 14 26 153 136 11 92 109 122 124 61 34 40 45 60 71 97 87 101 67 104 180 186 182 179 188 208 212 216 216 216 217 224 231 243 245 243 240 242 246 247 246 243 241
259 162 359 54 54 24 359 351 336 93 17 56 139 121 123 128 90 61 38 64 73 64 57 58 45 50 63 72 235 231 252 231 219 226 225 218 217 216 221 237 243 237 238 240 242 243 244 247 249
360 83 56 26 72 27 326 324 345 39 36 116 118 94 40 72 141 109 79 71 67 66 53 37 26 12 10 6 9 1 17 251 238 230 226 218 205 204 209 222 239 238 235 239 242 243 244 247 252
334 356 127 95 41 254 5 330 326 315 347 121 129 134 169 265 181 155 134 97 81 59 47 41 26 5 347 337 327 324 329 333 310 253 241 227 223 214 214 222 233 233 236 239 243 245 243 244 247
320 337 312 151 228 167 180 283 360 280 243 185 158 145 344 296 308 144 112 99 91 82 58 34 22 1 330 325 327 321 315 311 311 311 256 239 230 225 219 214 218 220 231 238 242 243 242 244 243
236 245 273 248 202 174 111 256 274 276 243 212 164 159 230 288 280 267 127 115 107 99 90 76 58 7 347 348 336 333 328 315 301 296 308 272 243 235 227 221 227 230 240 236 236 248 247 244 242
265 284 244 226 200 201 116 240 264 272 315 183 181 202 203 222 242 134 123 114 106 95 80 64 44 29 15 5 356 355 336 333 333 316 293 298 282 253 234 225 230 238 239 244 254 250 248 247 241
280 314 349 11 199 157 154 221 236 255 266 228 238 220 204 212 227 139 119 112 104 99 90 79 54 34 16 3 10 358 354 354 339 321 322 305 308 285 247 231 234 233 232 233 244 259 266 266 249
346 347 336 322 315 258 246 259 260 268 305 269 276 251 228 215 198 123 120 116 112 106 100 95 64 28 13 355 359 1 356 358 353 348 329 326 320 328 270 250 252 240 230 232 237 247 261 256 259
345 331 315 295 283 354 335 332 323 325 322 287 270 258 247 114 116 122 125 127 127 130 136 145 137 312 0 355 4 359 348 341 344 347 342 344 340 339 345 262 247 243 280 270 260 264 259 259 258
325 299 288 285 341 13 337 312 303 294 280 265 259 252 130 138 140 140 142 148 153 159 160 159 166 200 49 345 6 353 341 344 344 331 334 336 337 340 342 343 272 243 218 232 249 266 261 262 253
312 338 351 333 335 353 339 312 322 302 297 292 202 147 129 142 160 158 156 159 167 168 169 176 191 205 139 302 341 346 346 347 345 340 333 330 330 329 336 337 324 266 243 247 230 240 253 253 254
1 351 350 338 351 293 27 296 302 283 290 300 186 157 170 180 163 160 163 176 182 176 176 184 182 182 200 282 335 349 346 338 334 333 326 324 325 331 338 341 329 298 248 242 239 246 253 253 247
289 318 306 294 293 315 289 249 292 301 356 18 19 14 24 22 36 136 188 185 179 169 165 160 139 146 185 314 311 329 323 323 326 325 326 326 325 328 330 335 333 303 265 246 257 257 260 261 259
330 354 324 339 306 323 280 20 304 37 54 33 24 33 41 37 38 37 27 42 50 72 61 73 68 347 335 290 296 301 308 314 321 324 320 322 320 324 332 331 335 329 295 265 268 253 238 242 255
14 13 336 346 349 252 333 2 251 63 49 44 21 19 41 50 44 43 36 38 44 45 54 51 28 283 279 269 272 289 300 309 315 318 310 312 315 317 317 322 327 319 303 285 258 239 243 244 247
351 28 164 268 274 281 340 263 266 96 38 33 44 18 23 45 43 73 68 43 65 93 110 165 230 231 230 226 227 263 295 304 309 314 311 307 310 313 314 317 319 312 312 289 265 257 275 272 259
314 310 244 272 298 303 226 271 349 77 22 40 35 22 40 37 47 70 139 82 2 291 285 270 253 250 257 222 259 285 296 296 292 301 305 305 307 309 308 308 310 310 308 299 275 261 264 265 270
263 296 347 309 308 278 326 325 273 9 9 19 11 25 11 8 10 6 346 318 298 291 296 276 275 273 299 270 277 288 290 290 299 316 316 310 308 312 309 305 302 306 302 294 292 258 249 260 256
325 321 328 254 10 270 324 294 312 9 34 10 3 54 16 351 357 336 309 310 305 294 287 295 295 287 303 306 305 301 312 315 320 316 309 306 307 308 313 314 312 308 302 295 290 257 245 230 229
348 350 358 127 287 251 265 273 6 342 19 355 359 44 3 324 274 288 298 313 332 306 318 333 5 15 7 353 343 338 331 325 321 317 310 307 307 306 305 306 300 297 295 290 289 286 252 228 232